Weather History for Lakeville, MN

Change the Weather History Date:

Tuesday, September 4, 2012

  Actual Average Record
Temperature  
Mean Temperature 72 °F -  
Max Temperature 86 °F 76 °F 90 °F (1948)
Min Temperature 59 °F 53 °F 37 °F (1974)
Cooling Degree Days 8    
Growing Degree Days 22 (Base 50)    
Moisture  
Dew Point 62 °F    
Average Humidity 75    
Maximum Humidity 100    
Minimum Humidity 35    
Precipitation  
Precipitation 0.00 in - - ()
Sea Level Pressure  
Sea Level Pressure 29.83 in    
Wind  
Wind Speed 2 mph (WSW)    
Max Wind Speed 12 mph    
Max Gust Speed 16 mph    
Visibility 8 miles    
Events Fog    
Averages and records for this station are not official NWS values.
T = Trace of Precipitation, MM = Missing Value Source: NWS Daily Summary

Daily Weather History Graph

Daily Weather History Graph

Search for Another Location

Airport:

Trip Planner

Search our weather history database for the weather conditions in past years. The results will help you decide how hot, cold, wet, or windy it might be!

Date:

Astronomy

Sep. 04, 2012 Rise Set
Actual Time 6:39 AM CDT 7:43 PM CDT
Civil Twilight 6:09 AM CDT 8:12 PM CDT
Nautical Twilight 5:33 AM CDT 8:48 PM CDT
Astronomical Twilight 4:56 AM CDT 9:25 PM CDT
Moon 9:22 PM CDT (9/4) 11:00 AM CDT (9/4)
Length of Visible Light 14h 03m
Length of Day
13h 03m
Waning Gibbous, 83% of the Moon is Illuminated
Sep 4
Waning Gibbous
Sep 8
Last Quarter
Sep 15
New
Sep 22
First Quarter
Sep 29
Full

Hourly Weather History & Observations

Time (CDT) Temp. Heat Index Dew Point Humidity Pressure Visibility Wind Dir Wind Speed Gust Speed Precip Events Conditions
12:12 AM 64.4 °F - 62.6 °F 94% 29.89 in 7.0 mi Calm Calm - N/A   Clear
12:32 AM 64.4 °F - 62.6 °F 94% 29.90 in 7.0 mi Calm Calm - N/A   Clear
12:52 AM 62.6 °F - 62.6 °F 100% 29.89 in 7.0 mi SSW 3.5 mph - N/A   Clear
1:11 AM 64.4 °F - 64.4 °F 100% 29.90 in 7.0 mi WSW 3.5 mph - N/A   Clear
1:32 AM 64.4 °F - 62.6 °F 94% 29.90 in 7.0 mi Calm Calm - N/A   Clear
1:52 AM 64.4 °F - 64.4 °F 100% 29.89 in 7.0 mi Calm Calm - N/A   Clear
2:12 AM 64.4 °F - 64.4 °F 100% 29.89 in 7.0 mi Calm Calm - N/A   Clear
2:32 AM 62.6 °F - 62.6 °F 100% 29.88 in 7.0 mi Calm Calm - N/A   Clear
2:52 AM 62.6 °F - 62.6 °F 100% 29.88 in 5.0 mi Calm Calm - N/A   Clear
3:12 AM 62.6 °F - 62.6 °F 100% 29.86 in 5.0 mi Calm Calm - N/A   Clear
3:32 AM 64.4 °F - 62.6 °F 94% 29.86 in 5.0 mi Calm Calm - N/A   Clear
3:52 AM 64.4 °F - 64.4 °F 100% 29.86 in 4.0 mi Calm Calm - N/A   Clear
4:12 AM 62.6 °F - 62.6 °F 100% 29.85 in 4.0 mi Calm Calm - N/A   Clear
4:52 AM 60.8 °F - 60.8 °F 100% 29.84 in 2.0 mi Calm Calm - N/A   Clear
5:12 AM 60.8 °F - 60.8 °F 100% 29.84 in 0.2 mi Calm Calm - N/A Fog Fog
5:32 AM 62.6 °F - 62.6 °F 100% 29.84 in 0.8 mi Calm Calm - N/A   Mostly Cloudy
5:51 AM 62.6 °F - 62.6 °F 100% 29.84 in 5.0 mi Calm Calm - N/A   Clear
6:12 AM 62.6 °F - 62.6 °F 100% 29.85 in 5.0 mi Calm Calm - N/A   Clear
6:32 AM 60.8 °F - 60.8 °F 100% 29.86 in 3.0 mi Calm Calm - N/A   Clear
6:51 AM 59.0 °F - 59.0 °F 100% 29.86 in 3.0 mi Calm Calm - N/A   Clear
7:12 AM 60.8 °F - 60.8 °F 100% 29.87 in 2.0 mi Calm Calm - N/A   Clear
7:32 AM 62.6 °F - 62.6 °F 100% 29.86 in 5.0 mi Calm Calm - N/A   Clear
7:51 AM 62.6 °F - 62.6 °F 100% 29.86 in 5.0 mi Calm Calm - N/A   Clear
8:12 AM 66.2 °F - 64.4 °F 94% 29.86 in 10.0 mi Calm Calm - N/A   Clear
8:32 AM 69.8 °F - 64.4 °F 83% 29.86 in 10.0 mi South 3.5 mph - N/A   Clear
8:51 AM 71.6 °F - 64.4 °F 78% 29.85 in 10.0 mi South 3.5 mph - N/A   Clear
9:12 AM 73.4 °F - 66.2 °F 78% 29.85 in 10.0 mi South 3.5 mph - N/A   Clear
9:32 AM 73.4 °F - 66.2 °F 78% 29.85 in 10.0 mi South 4.6 mph - N/A   Clear
9:52 AM 75.2 °F - 66.2 °F 73% 29.85 in 10.0 mi SSW 6.9 mph - N/A   Clear
10:12 AM 77.0 °F - 66.2 °F 69% 29.85 in 10.0 mi SSW 5.8 mph - N/A   Clear
10:32 AM 78.8 °F - 66.2 °F 65% 29.85 in 10.0 mi SW 6.9 mph - N/A   Clear
11:12 AM 80.6 °F 83.2 °F 68.0 °F 65% 29.84 in 10.0 mi SW 5.8 mph - N/A   Clear
11:32 AM 82.4 °F 85.4 °F 68.0 °F 62% 29.84 in 10.0 mi WSW 9.2 mph - N/A   Clear
11:52 AM 82.4 °F 84.6 °F 66.2 °F 58% 29.84 in 10.0 mi WSW 9.2 mph - N/A   Clear
12:12 PM 82.4 °F 84.6 °F 66.2 °F 58% 29.84 in 10.0 mi WSW 9.2 mph - N/A   Clear
12:32 PM 82.4 °F 84.6 °F 66.2 °F 58% 29.83 in 10.0 mi WSW 8.1 mph - N/A   Clear
12:52 PM 84.2 °F 86.6 °F 66.2 °F 55% 29.82 in 10.0 mi SSW 5.8 mph - N/A   Clear
1:12 PM 84.2 °F 86.6 °F 66.2 °F 55% 29.82 in 10.0 mi WSW 4.6 mph - N/A   Clear
1:32 PM 84.2 °F 86.6 °F 66.2 °F 55% 29.82 in 10.0 mi SW 5.8 mph - N/A   Clear
1:52 PM 84.2 °F 86.6 °F 66.2 °F 55% 29.81 in 10.0 mi SW 5.8 mph - N/A   Clear
2:12 PM 84.2 °F 86.6 °F 66.2 °F 55% 29.81 in 10.0 mi SW 4.6 mph - N/A   Clear
2:31 PM 84.2 °F 86.6 °F 66.2 °F 55% 29.80 in 10.0 mi West 8.1 mph - N/A   Clear
2:52 PM 86.0 °F 87.3 °F 64.4 °F 48% 29.81 in 10.0 mi West 9.2 mph 16.1 mph N/A   Clear
3:12 PM 86.0 °F 86.6 °F 62.6 °F 45% 29.80 in 10.0 mi WSW 8.1 mph - N/A   Clear
3:31 PM 86.0 °F 86.6 °F 62.6 °F 45% 29.80 in 10.0 mi WSW 6.9 mph - N/A   Clear
3:52 PM 86.0 °F 84.9 °F 57.2 °F 37% 29.80 in 10.0 mi West 11.5 mph - N/A   Clear
4:12 PM 86.0 °F 85.4 °F 59.0 °F 40% 29.80 in 10.0 mi West 10.4 mph - N/A   Clear
4:31 PM 84.2 °F 83.5 °F 57.2 °F 40% 29.79 in 10.0 mi West 9.2 mph - N/A   Clear
5:11 PM 82.4 °F 81.7 °F 55.4 °F 39% 29.78 in 10.0 mi West 8.1 mph - N/A   Clear
5:32 PM 82.4 °F - 51.8 °F 35% 29.77 in 10.0 mi West 9.2 mph - N/A   Clear
5:52 PM 82.4 °F 81.4 °F 53.6 °F 37% 29.77 in 10.0 mi West 5.8 mph - N/A   Clear
6:12 PM 80.6 °F 80.5 °F 55.4 °F 42% 29.77 in 10.0 mi West 3.5 mph - N/A   Clear
6:32 PM 78.8 °F - 57.2 °F 47% 29.78 in 10.0 mi West 4.6 mph - N/A   Clear
6:52 PM 78.8 °F - 55.4 °F 44% 29.78 in 10.0 mi West 4.6 mph - N/A   Clear
7:12 PM 75.2 °F - 57.2 °F 53% 29.78 in 10.0 mi West 4.6 mph - N/A   Clear
7:32 PM 73.4 °F - 55.4 °F 53% 29.78 in 10.0 mi Calm Calm - N/A   Clear
7:52 PM 69.8 °F - 57.2 °F 64% 29.79 in 10.0 mi Calm Calm - N/A   Clear
8:12 PM 64.4 °F - 57.2 °F 77% 29.78 in 4.0 mi Calm Calm - N/A   Haze
8:32 PM 62.6 °F - 57.2 °F 82% 29.78 in 7.0 mi Calm Calm - N/A   Clear
8:52 PM 60.8 °F - 57.2 °F 88% 29.77 in 10.0 mi Calm Calm - N/A   Clear
9:12 PM 62.6 °F - 57.2 °F 82% 29.77 in 7.0 mi Calm Calm - N/A   Clear
9:32 PM 60.8 °F - 57.2 °F 88% 29.77 in 10.0 mi Calm Calm - N/A   Clear
10:12 PM 59.0 °F - 57.2 °F 94% 29.77 in 4.0 mi Calm Calm - N/A   Clear
10:32 PM 60.8 °F - 59.0 °F 94% 29.79 in 10.0 mi Calm Calm - N/A   Clear
10:52 PM 62.6 °F - 57.2 °F 82% 29.78 in 10.0 mi Calm Calm - N/A   Clear
11:32 PM 62.6 °F - 57.2 °F 82% 29.79 in 10.0 mi West 5.8 mph - N/A   Clear
11:52 PM 62.6 °F - 57.2 °F 82% 29.79 in 10.0 mi NW 8.1 mph - N/A   Clear